Location: 22
(39.7117°N, 89.5929°W)
Time: 06:55:07
(UTC-05:00)

A-11 Canister half - Pass Details

Date: 29 January 2023
Orbit: 1526 x 1682 km, 47.3° (Epoch: 01 April)

Event Time Altitude Azimuth Distance (km) Brightness Sun altitude
Rises 04:27:32 0° 183° (S) 4,669 11.5 -31.2°
Reaches altitude 10° 04:31:42 10° 167° (SSE) 3,683 11.1 -30.4°
Maximum altitude 04:37:42 19° 125° (SE) 3,009 11.0 -29.2°
Drops below altitude 10° 04:43:44 10° 84° (E) 3,707 12.0 -28.0°
Sets 04:47:54 0° 68° (ENE) 4,710 12.6 -27.2°
